When you browse on this site, cookies collect data to enhance your experience and personalize the content and advertising you see.
Visit our Privacy Policy to learn more. By continuing to use the site, you agree to this use of cookies and data.
  • In Switzerland
  • List of Countries
  • For 7 days
  • Water Temperature
  • Weather Map
  • Weather Widgets
  • user-avatar
    Login

    Hourly Weather Krasenki

    Today, 17 September, Tuesday

    Time Temperature Precipitation Wind Pressure Humidity
    00:00 +8°C° 0 mm 5 mps 731 mmHg 88%
    01:00 +8°C° 0 mm 5 mps 731 mmHg 90%
    02:00 +7°C° 0 mm 4 mps 731 mmHg 92%
    03:00 +7°C° 0 mm 4 mps 731 mmHg 92%
    04:00 +7°C° 0 mm 4 mps 731 mmHg 93%
    05:00 +7°C° 0 mm 5 mps 731 mmHg 93%
    06:00 +8°C° 0 mm 5 mps 731 mmHg 87%
    07:00 +8°C° 0 mm 6 mps 731 mmHg 80%
    08:00 +9°C° 0 mm 7 mps 731 mmHg 74%
    09:00 +10°C° 0.1 mm 7 mps 731 mmHg 69%
    10:00 +11°C° 0.1 mm 7 mps 731 mmHg 63%
    11:00 +12°C° 0.1 mm 7 mps 731 mmHg 58%
    12:00 +12°C° 0.2 mm 7 mps 731 mmHg 58%
    13:00 +12°C° 0.2 mm 7 mps 731 mmHg 58%
    14:00 +12°C° 0.2 mm 7 mps 731 mmHg 58%
    15:00 +11°C° 0.2 mm 6 mps 731 mmHg 64%
    16:00 +10°C° 0.2 mm 5 mps 731 mmHg 70%
    17:00 +10°C° 0.2 mm 3 mps 731 mmHg 76%
    18:00 +9°C° 0 mm 3 mps 731 mmHg 80%
    19:00 +8°C° 0 mm 3 mps 731 mmHg 83%
    20:00 +7°C° 0 mm 3 mps 731 mmHg 87%
    21:00 +7°C° 0 mm 3 mps 731 mmHg 87%
    22:00 +5°C° 0 mm 3 mps 731 mmHg 87%
    23:00 +5°C° 0 mm 3 mps 731 mmHg 88%

    Tomorrow, 18 September, Wednesday

    Time Temperature Precipitation Wind Pressure Humidity
    00:00 +5°C° 0 mm 3 mps 731 mmHg 88%
    01:00 +5°C° 0 mm 3 mps 730 mmHg 88%
    02:00 +5°C° 0 mm 3 mps 730 mmHg 88%
    03:00 +4°C° 0 mm 3 mps 730 mmHg 88%
    04:00 +4°C° 0 mm 3 mps 730 mmHg 89%
    05:00 +4°C° 0 mm 3 mps 729 mmHg 89%
    06:00 +6°C° 0.7 mm 2 mps 729 mmHg 89%
    07:00 +6°C° 0.7 mm 2 mps 729 mmHg 90%
    08:00 +7°C° 0.7 mm 2 mps 728 mmHg 90%
    09:00 +8°C° 0.4 mm 2 mps 728 mmHg 90%
    10:00 +8°C° 0.4 mm 3 mps 728 mmHg 89%
    11:00 +9°C° 0.4 mm 3 mps 728 mmHg 88%
    12:00 +9°C° 0.5 mm 3 mps 727 mmHg 85%
    13:00 +10°C° 0.5 mm 2 mps 727 mmHg 81%
    14:00 +11°C° 0.5 mm 1 mps 727 mmHg 78%
    15:00 +10°C° 0.4 mm 2 mps 727 mmHg 81%
    16:00 +9°C° 0.4 mm 2 mps 727 mmHg 84%
    17:00 +9°C° 0.4 mm 2 mps 727 mmHg 88%
    18:00 +8°C° 0.2 mm 3 mps 727 mmHg 89%
    19:00 +8°C° 0.2 mm 3 mps 728 mmHg 91%
    20:00 +6°C° 0.2 mm 4 mps 728 mmHg 92%
    21:00 +6°C° 0.1 mm 4 mps 729 mmHg 93%
    22:00 +5°C° 0.1 mm 4 mps 730 mmHg 94%
    23:00 +5°C° 0.1 mm 4 mps 730 mmHg 95%

    Day after tomorrow, 19 September, Thursday

    Time Temperature Precipitation Wind Pressure Humidity
    00:00 +5°C° 0 mm 4 mps 731 mmHg 95%
    01:00 +4°C° 0 mm 4 mps 732 mmHg 96%
    02:00 +4°C° 0 mm 4 mps 732 mmHg 96%
    03:00 +4°C° 0 mm 4 mps 733 mmHg 97%
    04:00 +4°C° 0 mm 4 mps 734 mmHg 97%
    05:00 +3°C° 0 mm 4 mps 734 mmHg 97%
    06:00 +4°C° 0 mm 4 mps 735 mmHg 95%
    07:00 +5°C° 0 mm 4 mps 735 mmHg 94%
    08:00 +6°C° 0 mm 4 mps 736 mmHg 92%
    09:00 +6°C° 0 mm 4 mps 736 mmHg 90%
    10:00 +6°C° 0 mm 4 mps 737 mmHg 88%
    11:00 +7°C° 0 mm 4 mps 737 mmHg 87%
    12:00 +7°C° 0.1 mm 4 mps 737 mmHg 84%
    13:00 +7°C° 0.1 mm 4 mps 738 mmHg 81%
    14:00 +9°C° 0.1 mm 3 mps 738 mmHg 78%
    15:00 +8°C° 0.1 mm 3 mps 738 mmHg 80%
    16:00 +8°C° 0.1 mm 2 mps 738 mmHg 81%
    17:00 +9°C° 0.1 mm 1 mps 738 mmHg 82%
    18:00 +8°C° 0.2 mm 1 mps 739 mmHg 84%
    19:00 +8°C° 0.2 mm 1 mps 739 mmHg 86%
    20:00 +7°C° 0.2 mm 1 mps 739 mmHg 88%
    21:00 +7°C° 0 mm 1 mps 739 mmHg 88%
    22:00 +6°C° 0 mm 1 mps 739 mmHg 87%
    23:00 +5°C° 0 mm 2 mps 740 mmHg 86%

    20 September, Friday

    Time Temperature Precipitation Wind Pressure Humidity
    00:00 +4°C° 0 mm 2 mps 740 mmHg 89%
    01:00 +3°C° 0 mm 2 mps 739 mmHg 91%
    02:00 +3°C° 0 mm 2 mps 739 mmHg 93%
    03:00 +2°C° 0 mm 2 mps 739 mmHg 94%
    04:00 +2°C° 0 mm 2 mps 739 mmHg 95%
    05:00 +2°C° 0 mm 2 mps 739 mmHg 97%
    06:00 +3°C° 0 mm 2 mps 740 mmHg 93%
    07:00 +4°C° 0 mm 2 mps 740 mmHg 89%
    08:00 +5°C° 0 mm 2 mps 740 mmHg 86%
    09:00 +6°C° 0 mm 2 mps 740 mmHg 78%
    10:00 +7°C° 0 mm 2 mps 740 mmHg 70%
    11:00 +8°C° 0 mm 2 mps 740 mmHg 62%
    12:00 +8°C° 0 mm 2 mps 740 mmHg 59%
    13:00 +9°C° 0 mm 2 mps 740 mmHg 56%
    14:00 +9°C° 0 mm 2 mps 739 mmHg 53%
    15:00 +8°C° 0 mm 2 mps 739 mmHg 57%
    16:00 +8°C° 0 mm 1 mps 739 mmHg 61%
    17:00 +8°C° 0 mm 1 mps 739 mmHg 65%
    18:00 +7°C° 0 mm 1 mps 740 mmHg 66%
    19:00 +6°C° 0 mm 1 mps 740 mmHg 66%
    20:00 +6°C° 0 mm 1 mps 740 mmHg 67%
    21:00 +5°C° 0 mm 1 mps 740 mmHg 68%
    22:00 +5°C° 0 mm 1 mps 740 mmHg 70%
    23:00 +4°C° 0 mm 2 mps 741 mmHg 72%

    21 September, Saturday

    Time Temperature Precipitation Wind Pressure Humidity
    00:00 +3°C° 0 mm 2 mps 741 mmHg 76%
    01:00 +3°C° 0 mm 2 mps 741 mmHg 81%
    02:00 +1°C° 0 mm 3 mps 741 mmHg 85%
    03:00 +1°C° 0 mm 3 mps 741 mmHg 86%
    04:00 +2°C° 0 mm 3 mps 742 mmHg 86%
    05:00 +2°C° 0 mm 3 mps 742 mmHg 86%
    06:00 +2°C° 0 mm 3 mps 742 mmHg 80%
    07:00 +3°C° 0 mm 4 mps 743 mmHg 74%
    08:00 +4°C° 0 mm 4 mps 743 mmHg 68%
    09:00 +5°C° 0 mm 4 mps 743 mmHg 62%
    10:00 +6°C° 0 mm 4 mps 744 mmHg 57%
    11:00 +7°C° 0 mm 5 mps 744 mmHg 51%
    12:00 +7°C° 0 mm 5 mps 744 mmHg 49%
    13:00 +8°C° 0 mm 5 mps 744 mmHg 46%
    14:00 +8°C° 0 mm 5 mps 744 mmHg 44%
    15:00 +7°C° 0 mm 4 mps 744 mmHg 50%
    16:00 +6°C° 0 mm 4 mps 744 mmHg 56%
    17:00 +5°C° 0 mm 3 mps 744 mmHg 62%
    18:00 +4°C° 0 mm 3 mps 745 mmHg 67%
    19:00 +3°C° 0 mm 3 mps 745 mmHg 72%
    20:00 +2°C° 0 mm 3 mps 745 mmHg 78%
    21:00 +1°C° 0 mm 3 mps 745 mmHg 80%
    22:00 +2°C° 0 mm 2 mps 746 mmHg 83%
    23:00 +1°C° 0 mm 2 mps 746 mmHg 86%

    22 September, Sunday

    Time Temperature Precipitation Wind Pressure Humidity
    00:00 +1°C° 0 mm 2 mps 746 mmHg 88%
    01:00 +1°C° 0 mm 2 mps 746 mmHg 89%
    02:00 -1°C° 0 mm 2 mps 746 mmHg 91%
    03:00 -1°C° 0 mm 2 mps 746 mmHg 92%
    04:00 -1°C° 0 mm 2 mps 746 mmHg 93%
    05:00 -1°C° 0 mm 3 mps 746 mmHg 94%
    06:00 0°C° 0 mm 3 mps 746 mmHg 87%
    07:00 +2°C° 0 mm 3 mps 746 mmHg 80%
    08:00 +3°C° 0 mm 4 mps 747 mmHg 72%
    09:00 +4°C° 0 mm 4 mps 746 mmHg 68%
    10:00 +6°C° 0 mm 4 mps 746 mmHg 64%
    11:00 +7°C° 0 mm 4 mps 746 mmHg 60%
    12:00 +6°C° 0 mm 4 mps 746 mmHg 66%
    13:00 +6°C° 0 mm 4 mps 745 mmHg 71%
    14:00 +6°C° 0 mm 4 mps 745 mmHg 76%
    15:00 +5°C° 0.3 mm 4 mps 745 mmHg 81%
    16:00 +5°C° 0.3 mm 4 mps 744 mmHg 86%
    17:00 +4°C° 0.3 mm 4 mps 744 mmHg 91%
    18:00 +5°C° 0.3 mm 4 mps 744 mmHg 93%
    19:00 +5°C° 0.3 mm 3 mps 744 mmHg 94%
    20:00 +5°C° 0.3 mm 3 mps 744 mmHg 96%
    21:00 +7°C° 0.4 mm 3 mps 744 mmHg 97%
    22:00 +7°C° 0.4 mm 3 mps 744 mmHg 97%
    23:00 +8°C° 0.4 mm 3 mps 744 mmHg 98%
    Show more